Year,Month,Day,Hour,Minute,Value (Times are PST for temperature in C)
2017,06,25,00,00,19.10
2017,06,25,00,01,19.00
2017,06,25,00,02,19.00
2017,06,25,00,03,19.00
2017,06,25,00,04,18.90
2017,06,25,00,05,18.90
2017,06,25,00,06,18.90
2017,06,25,00,07,18.80
2017,06,25,00,08,18.80
2017,06,25,00,09,18.80
2017,06,25,00,10,18.70
2017,06,25,00,11,18.70
2017,06,25,00,12,18.70
2017,06,25,00,13,18.60
2017,06,25,00,14,18.60
2017,06,25,00,15,18.60
2017,06,25,00,16,18.60
2017,06,25,00,17,18.50
2017,06,25,00,18,18.50
2017,06,25,00,19,18.40
2017,06,25,00,20,18.40
2017,06,25,00,21,18.30
2017,06,25,00,22,18.30
2017,06,25,00,23,18.20
2017,06,25,00,24,18.20
2017,06,25,00,25,18.10
2017,06,25,00,26,18.10
2017,06,25,00,27,18.00
2017,06,25,00,28,18.00
2017,06,25,00,29,17.90
2017,06,25,00,30,17.90
2017,06,25,00,31,17.80
2017,06,25,00,32,17.80
2017,06,25,00,33,17.80
2017,06,25,00,34,17.80
2017,06,25,00,35,17.80
2017,06,25,00,36,17.70
2017,06,25,00,37,17.70
2017,06,25,00,38,17.70
2017,06,25,00,39,17.70
2017,06,25,00,40,17.70
2017,06,25,00,41,17.60
2017,06,25,00,42,17.60
2017,06,25,00,43,17.60
2017,06,25,00,44,17.60
2017,06,25,00,45,17.60
2017,06,25,00,46,17.60
2017,06,25,00,47,17.60
2017,06,25,00,48,17.40
2017,06,25,00,49,17.40
2017,06,25,00,50,17.30
2017,06,25,00,51,17.30
2017,06,25,00,52,17.30
2017,06,25,00,53,17.20
2017,06,25,00,54,17.20
2017,06,25,00,55,17.20
2017,06,25,00,56,17.10
2017,06,25,00,57,17.10
2017,06,25,00,58,17.00
2017,06,25,00,59,17.00
2017,06,25,01,00,16.90
2017,06,25,01,01,16.90
2017,06,25,01,02,16.80
2017,06,25,01,03,16.80
2017,06,25,01,04,16.80
2017,06,25,01,05,16.80
2017,06,25,01,06,16.70
2017,06,25,01,07,16.70
2017,06,25,01,08,16.70
2017,06,25,01,09,16.70
2017,06,25,01,10,16.70
2017,06,25,01,11,16.60
2017,06,25,01,12,16.60
2017,06,25,01,13,16.60
2017,06,25,01,14,16.60
2017,06,25,01,15,16.50
2017,06,25,01,16,16.50
2017,06,25,01,17,16.50
2017,06,25,01,18,16.40
2017,06,25,01,19,16.40
2017,06,25,01,20,16.40
2017,06,25,01,21,16.40
2017,06,25,01,22,16.30
2017,06,25,01,23,16.30
2017,06,25,01,24,16.30
2017,06,25,01,25,16.30
2017,06,25,01,26,16.20
2017,06,25,01,27,16.20
2017,06,25,01,28,16.20
2017,06,25,01,29,16.10
2017,06,25,01,30,16.10
2017,06,25,01,31,16.10
2017,06,25,01,32,16.00
2017,06,25,01,33,16.00
2017,06,25,01,34,15.90
2017,06,25,01,35,15.90
2017,06,25,01,36,15.90
2017,06,25,01,37,15.90
2017,06,25,01,38,15.80
2017,06,25,01,39,15.80
2017,06,25,01,40,15.80
2017,06,25,01,41,15.80
2017,06,25,01,42,15.80
2017,06,25,01,43,15.80
2017,06,25,01,44,15.70
2017,06,25,01,45,15.70
2017,06,25,01,46,15.70
2017,06,25,01,47,15.60
2017,06,25,01,48,15.60
2017,06,25,01,49,15.60
2017,06,25,01,50,15.60
2017,06,25,01,51,15.50
2017,06,25,01,52,15.50
2017,06,25,01,53,15.50
2017,06,25,01,54,15.40
2017,06,25,01,55,15.40
2017,06,25,01,56,15.40
2017,06,25,01,57,15.40
2017,06,25,01,58,15.40
2017,06,25,01,59,15.30
2017,06,25,02,00,15.30
2017,06,25,02,01,15.30
2017,06,25,02,02,15.30
2017,06,25,02,03,15.20
2017,06,25,02,04,15.20
2017,06,25,02,05,15.20
2017,06,25,02,06,15.20
2017,06,25,02,07,15.20
2017,06,25,02,08,15.10
2017,06,25,02,09,15.10
2017,06,25,02,10,15.10
2017,06,25,02,11,15.10
2017,06,25,02,12,15.00
2017,06,25,02,13,15.00
2017,06,25,02,14,15.00
2017,06,25,02,15,15.00
2017,06,25,02,16,14.90
2017,06,25,02,17,14.90
2017,06,25,02,18,14.90
2017,06,25,02,19,14.90
2017,06,25,02,20,14.90
2017,06,25,02,21,14.90
2017,06,25,02,22,14.90
2017,06,25,02,23,14.90
2017,06,25,02,24,14.90
2017,06,25,02,25,14.90
2017,06,25,02,26,14.80
2017,06,25,02,27,14.80
2017,06,25,02,28,14.80
2017,06,25,02,29,14.80
2017,06,25,02,30,14.80
2017,06,25,02,31,14.70
2017,06,25,02,32,14.70
2017,06,25,02,33,14.70
2017,06,25,02,34,14.70
2017,06,25,02,35,14.60
2017,06,25,02,36,14.60
2017,06,25,02,37,14.60
2017,06,25,02,38,14.60
2017,06,25,02,39,14.60
2017,06,25,02,40,14.50
2017,06,25,02,41,14.50
2017,06,25,02,42,14.50
2017,06,25,02,43,14.40
2017,06,25,02,44,14.40
2017,06,25,02,45,14.40
2017,06,25,02,46,14.30
2017,06,25,02,47,14.30
2017,06,25,02,48,14.30
2017,06,25,02,49,14.30
2017,06,25,02,50,14.30
2017,06,25,02,51,14.20
2017,06,25,02,52,14.20
2017,06,25,02,53,14.20
2017,06,25,02,54,14.20
2017,06,25,02,55,14.20
2017,06,25,02,56,14.20
2017,06,25,02,57,14.20
2017,06,25,02,58,14.20
2017,06,25,02,59,14.20
2017,06,25,03,00,14.20
2017,06,25,03,01,14.20
2017,06,25,03,02,14.10
2017,06,25,03,03,14.10
2017,06,25,03,04,14.10
2017,06,25,03,05,14.10
2017,06,25,03,06,14.00
2017,06,25,03,07,14.00
2017,06,25,03,08,14.00
2017,06,25,03,09,13.90
2017,06,25,03,10,13.90
2017,06,25,03,11,13.90
2017,06,25,03,12,13.80
2017,06,25,03,13,13.80
2017,06,25,03,14,13.80
2017,06,25,03,15,13.80
2017,06,25,03,16,13.80
2017,06,25,03,17,13.80
2017,06,25,03,18,13.80
2017,06,25,03,19,13.80
2017,06,25,03,20,13.80
2017,06,25,03,21,13.80
2017,06,25,03,22,13.80
2017,06,25,03,23,13.80
2017,06,25,03,24,13.80
2017,06,25,03,25,13.80
2017,06,25,03,26,13.80
2017,06,25,03,27,13.80
2017,06,25,03,28,13.80
2017,06,25,03,29,13.80
2017,06,25,03,30,13.80
2017,06,25,03,31,13.80
2017,06,25,03,32,13.80
2017,06,25,03,33,13.80
2017,06,25,03,34,13.80
2017,06,25,03,35,13.80
2017,06,25,03,36,13.80
2017,06,25,03,37,13.80
2017,06,25,03,38,13.80
2017,06,25,03,39,13.80
2017,06,25,03,40,13.80
2017,06,25,03,41,13.80
2017,06,25,03,42,13.80
2017,06,25,03,43,13.80
2017,06,25,03,44,13.80
2017,06,25,03,45,13.70
2017,06,25,03,46,13.70
2017,06,25,03,47,13.70
2017,06,25,03,48,13.70
2017,06,25,03,49,13.70
2017,06,25,03,50,13.60
2017,06,25,03,51,13.60
2017,06,25,03,52,13.60
2017,06,25,03,53,13.50
2017,06,25,03,54,13.50
2017,06,25,03,55,13.50
2017,06,25,03,56,13.40
2017,06,25,03,57,13.40
2017,06,25,03,58,13.40
2017,06,25,03,59,13.40
2017,06,25,04,00,13.40
2017,06,25,04,01,13.40
2017,06,25,04,02,13.40
2017,06,25,04,03,13.40
2017,06,25,04,04,13.40
2017,06,25,04,05,13.40
2017,06,25,04,06,13.40
2017,06,25,04,07,13.40
2017,06,25,04,08,13.30
2017,06,25,04,09,13.30
2017,06,25,04,10,13.30
2017,06,25,04,11,13.30
2017,06,25,04,12,13.30
2017,06,25,04,13,13.30
2017,06,25,04,14,13.20
2017,06,25,04,15,13.20
2017,06,25,04,16,13.20
2017,06,25,04,17,13.10
2017,06,25,04,18,13.10
2017,06,25,04,19,13.10
2017,06,25,04,20,13.10
2017,06,25,04,21,13.00
2017,06,25,04,22,13.00
2017,06,25,04,23,13.00
2017,06,25,04,24,12.90
2017,06,25,04,25,12.90
2017,06,25,04,26,12.90
2017,06,25,04,27,12.90
2017,06,25,04,28,12.80
2017,06,25,04,29,12.80
2017,06,25,04,30,12.80
2017,06,25,04,31,12.80
2017,06,25,04,32,12.80
2017,06,25,04,33,12.70
2017,06,25,04,34,12.70
2017,06,25,04,35,12.70
2017,06,25,04,36,12.70
2017,06,25,04,37,12.70
2017,06,25,04,38,12.70
2017,06,25,04,39,12.60
2017,06,25,04,40,12.60
2017,06,25,04,41,12.60
2017,06,25,04,42,12.60
2017,06,25,04,43,12.60
2017,06,25,04,44,12.60
2017,06,25,04,45,12.50
2017,06,25,04,46,12.50
2017,06,25,04,47,12.50
2017,06,25,04,48,12.50
2017,06,25,04,49,12.50
2017,06,25,04,50,12.50
2017,06,25,04,51,12.40
2017,06,25,04,52,12.40
2017,06,25,04,53,12.40
2017,06,25,04,54,12.40
2017,06,25,04,55,12.40
2017,06,25,04,56,12.40
2017,06,25,04,57,12.40
2017,06,25,04,58,12.50
2017,06,25,04,59,12.50
2017,06,25,05,00,12.50
2017,06,25,05,01,12.50
2017,06,25,05,02,12.50
2017,06,25,05,03,12.50
2017,06,25,05,04,12.50
2017,06,25,05,05,12.50
2017,06,25,05,06,12.50
2017,06,25,05,07,12.50
2017,06,25,05,08,12.50
2017,06,25,05,09,12.50
2017,06,25,05,10,12.60
2017,06,25,05,11,12.60
2017,06,25,05,12,12.60
2017,06,25,05,13,12.60
2017,06,25,05,14,12.60
2017,06,25,05,15,12.60
2017,06,25,05,16,12.60
2017,06,25,05,17,12.50
2017,06,25,05,18,12.50
2017,06,25,05,19,12.50
2017,06,25,05,20,12.50
2017,06,25,05,21,12.50
2017,06,25,05,22,12.50
2017,06,25,05,23,12.40
2017,06,25,05,24,12.40
2017,06,25,05,25,12.40
2017,06,25,05,26,12.40
2017,06,25,05,27,12.40
2017,06,25,05,28,12.40
2017,06,25,05,29,12.40
2017,06,25,05,30,12.40
2017,06,25,05,31,12.40
2017,06,25,05,32,12.30
2017,06,25,05,33,12.30
2017,06,25,05,34,12.30
2017,06,25,05,35,12.30
2017,06,25,05,36,12.30
2017,06,25,05,37,12.30
2017,06,25,05,38,12.30
2017,06,25,05,39,12.30
2017,06,25,05,40,12.30
2017,06,25,05,41,12.30
2017,06,25,05,42,12.40
2017,06,25,05,43,12.40
2017,06,25,05,44,12.40
2017,06,25,05,45,12.40
2017,06,25,05,46,12.40
2017,06,25,05,47,12.40
2017,06,25,05,48,12.40
2017,06,25,05,49,12.40
2017,06,25,05,50,12.40
2017,06,25,05,51,12.40
2017,06,25,05,52,12.40
2017,06,25,05,53,12.40
2017,06,25,05,54,12.40
2017,06,25,05,55,12.40
2017,06,25,05,56,12.40
2017,06,25,05,57,12.40
2017,06,25,05,58,12.40
2017,06,25,05,59,12.40
2017,06,25,06,00,12.40
2017,06,25,06,01,12.40
2017,06,25,06,02,12.40
2017,06,25,06,03,12.50
2017,06,25,06,04,12.50
2017,06,25,06,05,12.50
2017,06,25,06,06,12.50
2017,06,25,06,07,12.50
2017,06,25,06,08,12.50
2017,06,25,06,09,12.50
2017,06,25,06,10,12.60
2017,06,25,06,11,12.60
2017,06,25,06,12,12.60
2017,06,25,06,13,12.60
2017,06,25,06,14,12.60
2017,06,25,06,15,12.60
2017,06,25,06,16,12.60
2017,06,25,06,17,12.70
2017,06,25,06,18,12.70
2017,06,25,06,19,12.70
2017,06,25,06,20,12.70
2017,06,25,06,21,12.70
2017,06,25,06,22,12.80
2017,06,25,06,23,12.80
2017,06,25,06,24,12.80
2017,06,25,06,25,12.90
2017,06,25,06,26,13.00
2017,06,25,06,27,13.00
2017,06,25,06,28,13.10
2017,06,25,06,29,13.10
2017,06,25,06,30,13.10
2017,06,25,06,31,13.20
2017,06,25,06,32,13.20
2017,06,25,06,33,13.20
2017,06,25,06,34,13.30
2017,06,25,06,35,13.30
2017,06,25,06,36,13.30
2017,06,25,06,37,13.30
2017,06,25,06,38,13.30
2017,06,25,06,39,13.30
2017,06,25,06,40,13.30
2017,06,25,06,41,13.30
2017,06,25,06,42,13.30
2017,06,25,06,43,13.30
2017,06,25,06,44,13.30
2017,06,25,06,45,13.30
2017,06,25,06,46,13.30
2017,06,25,06,47,13.30
2017,06,25,06,48,13.30
2017,06,25,06,49,13.30
2017,06,25,06,50,13.30
2017,06,25,06,51,13.30
2017,06,25,06,52,13.30
2017,06,25,06,53,13.30
2017,06,25,06,54,13.40
2017,06,25,06,55,13.40
2017,06,25,06,56,13.50
2017,06,25,06,57,13.60
2017,06,25,06,58,13.70
2017,06,25,06,59,13.80
2017,06,25,07,00,13.80
2017,06,25,07,01,13.90
2017,06,25,07,02,14.00
2017,06,25,07,03,14.10
2017,06,25,07,04,14.20
2017,06,25,07,05,14.20
2017,06,25,07,06,14.30
2017,06,25,07,07,14.30
2017,06,25,07,08,14.40
2017,06,25,07,09,14.40
2017,06,25,07,10,14.40
2017,06,25,07,11,14.50
2017,06,25,07,12,14.50
2017,06,25,07,13,14.50
2017,06,25,07,14,14.50
2017,06,25,07,15,14.60
2017,06,25,07,16,14.60
2017,06,25,07,17,14.60
2017,06,25,07,18,14.60
2017,06,25,07,19,14.60
2017,06,25,07,20,14.60
2017,06,25,07,21,14.70
2017,06,25,07,22,14.70
2017,06,25,07,23,14.70
2017,06,25,07,24,14.70
2017,06,25,07,25,14.80
2017,06,25,07,26,14.80
2017,06,25,07,27,14.80
2017,06,25,07,28,14.80
2017,06,25,07,29,14.90
2017,06,25,07,30,14.90
2017,06,25,07,31,14.90
2017,06,25,07,32,15.00
2017,06,25,07,33,15.00
2017,06,25,07,34,15.10
2017,06,25,07,35,15.10
2017,06,25,07,36,15.10
2017,06,25,07,37,15.20
2017,06,25,07,38,15.30
2017,06,25,07,39,15.30
2017,06,25,07,40,15.40
2017,06,25,07,41,15.50
2017,06,25,07,42,15.60
2017,06,25,07,43,15.60
2017,06,25,07,44,15.70
2017,06,25,07,45,15.70
2017,06,25,07,46,15.80
2017,06,25,07,47,15.90
2017,06,25,07,48,16.00
2017,06,25,07,49,16.10
2017,06,25,07,50,16.10
2017,06,25,07,51,16.20
2017,06,25,07,52,16.20
2017,06,25,07,53,16.30
2017,06,25,07,54,16.30
2017,06,25,07,55,16.30
2017,06,25,07,56,16.30
2017,06,25,07,57,16.30
2017,06,25,07,58,16.40
2017,06,25,07,59,16.40
2017,06,25,08,00,16.40
2017,06,25,08,01,16.50
2017,06,25,08,02,16.50
2017,06,25,08,03,16.60
2017,06,25,08,04,16.60
2017,06,25,08,05,16.70
2017,06,25,08,06,16.70
2017,06,25,08,07,16.80
2017,06,25,08,08,16.80
2017,06,25,08,09,16.90
2017,06,25,08,10,16.90
2017,06,25,08,11,17.00
2017,06,25,08,12,17.10
2017,06,25,08,13,17.10
2017,06,25,08,14,17.20
2017,06,25,08,15,17.20
2017,06,25,08,16,17.30
2017,06,25,08,17,17.30
2017,06,25,08,18,17.40
2017,06,25,08,19,17.50
2017,06,25,08,20,17.60
2017,06,25,08,21,17.70
2017,06,25,08,22,17.80
2017,06,25,08,23,17.90
2017,06,25,08,24,18.00
2017,06,25,08,25,18.10
2017,06,25,08,26,18.20
2017,06,25,08,27,18.30
2017,06,25,08,28,18.30
2017,06,25,08,29,18.40
2017,06,25,08,30,18.40
2017,06,25,08,31,18.40
2017,06,25,08,32,18.40
2017,06,25,08,33,18.40
2017,06,25,08,34,18.50
2017,06,25,08,35,18.50
2017,06,25,08,36,18.60
2017,06,25,08,37,18.70
2017,06,25,08,38,18.80
2017,06,25,08,39,18.90
2017,06,25,08,40,18.90
2017,06,25,08,41,19.00
2017,06,25,08,42,19.00
2017,06,25,08,43,19.10
2017,06,25,08,44,19.20
2017,06,25,08,45,19.30
2017,06,25,08,46,19.40
2017,06,25,08,47,19.50
2017,06,25,08,48,19.60
2017,06,25,08,49,19.70
2017,06,25,08,50,19.80
2017,06,25,08,51,19.90
2017,06,25,08,52,20.00
2017,06,25,08,53,20.10
2017,06,25,08,54,20.10
2017,06,25,08,55,20.20
2017,06,25,08,56,20.30
2017,06,25,08,57,20.40
2017,06,25,08,58,20.50
2017,06,25,08,59,20.50
2017,06,25,09,00,20.60
2017,06,25,09,01,20.60
2017,06,25,09,02,20.70
2017,06,25,09,03,20.70
2017,06,25,09,04,20.80
2017,06,25,09,05,20.80
2017,06,25,09,06,20.90
2017,06,25,09,07,21.10
2017,06,25,09,08,21.20
2017,06,25,09,09,21.30
2017,06,25,09,10,21.50
2017,06,25,09,11,21.60
2017,06,25,09,12,21.70
2017,06,25,09,13,21.80
2017,06,25,09,14,22.00
2017,06,25,09,15,22.10
2017,06,25,09,16,22.20
2017,06,25,09,17,22.20
2017,06,25,09,18,22.20
2017,06,25,09,19,22.20
2017,06,25,09,20,22.20
2017,06,25,09,21,22.20
2017,06,25,09,22,22.20
2017,06,25,09,23,22.20
2017,06,25,09,24,22.30
2017,06,25,09,25,22.30
2017,06,25,09,26,22.40
2017,06,25,09,27,22.60
2017,06,25,09,28,22.60
2017,06,25,09,29,22.60
2017,06,25,09,30,22.60
2017,06,25,09,31,22.60
2017,06,25,09,32,22.50
2017,06,25,09,33,22.50
2017,06,25,09,34,22.50
2017,06,25,09,35,22.50
2017,06,25,09,36,22.40
2017,06,25,09,37,22.30
2017,06,25,09,38,22.20
2017,06,25,09,39,22.10
2017,06,25,09,40,22.00
2017,06,25,09,41,22.00
2017,06,25,09,42,22.00
2017,06,25,09,43,22.00
2017,06,25,09,44,22.10
2017,06,25,09,45,22.10
2017,06,25,09,46,22.20
2017,06,25,09,47,22.30
2017,06,25,09,48,22.40
2017,06,25,09,49,22.50
2017,06,25,09,50,22.70
2017,06,25,09,51,22.80
2017,06,25,09,52,22.80
2017,06,25,09,53,22.90
2017,06,25,09,54,23.00
2017,06,25,09,55,23.10
2017,06,25,09,56,23.20
2017,06,25,09,57,23.40
2017,06,25,09,58,23.50
2017,06,25,09,59,23.60
2017,06,25,10,00,23.60
2017,06,25,10,01,23.70
2017,06,25,10,02,23.70
2017,06,25,10,03,23.70
2017,06,25,10,04,23.70
2017,06,25,10,05,23.60
2017,06,25,10,06,23.60
2017,06,25,10,07,23.50
2017,06,25,10,08,23.50
2017,06,25,10,09,23.60
2017,06,25,10,10,23.60
2017,06,25,10,11,23.60
2017,06,25,10,12,23.60
2017,06,25,10,13,23.50
2017,06,25,10,14,23.50
2017,06,25,10,15,23.50
2017,06,25,10,16,23.60
2017,06,25,10,17,23.60
2017,06,25,10,18,23.70
2017,06,25,10,19,23.80
2017,06,25,10,20,23.90
2017,06,25,10,21,23.90
2017,06,25,10,22,23.90
2017,06,25,10,23,24.00
2017,06,25,10,24,24.00
2017,06,25,10,25,24.10
2017,06,25,10,26,24.10
2017,06,25,10,27,24.10
2017,06,25,10,28,24.10
2017,06,25,10,29,24.10
2017,06,25,10,30,24.10
2017,06,25,10,31,24.10
2017,06,25,10,32,24.20
2017,06,25,10,33,24.20
2017,06,25,10,34,24.30
2017,06,25,10,35,24.40
2017,06,25,10,36,24.50
2017,06,25,10,37,24.70
2017,06,25,10,38,24.80
2017,06,25,10,39,24.90
2017,06,25,10,40,24.90
2017,06,25,10,41,25.00
2017,06,25,10,42,25.10
2017,06,25,10,43,25.20
2017,06,25,10,44,25.20
2017,06,25,10,45,25.20
2017,06,25,10,46,25.20
2017,06,25,10,47,25.20
2017,06,25,10,48,25.20
2017,06,25,10,49,25.20
2017,06,25,10,50,25.20
2017,06,25,10,51,25.20
2017,06,25,10,52,25.20
2017,06,25,10,53,25.20
2017,06,25,10,54,25.20
2017,06,25,10,55,25.30
2017,06,25,10,56,25.30
2017,06,25,10,57,25.40
2017,06,25,10,58,25.40
2017,06,25,10,59,25.40
2017,06,25,11,00,25.50
2017,06,25,11,01,25.60
2017,06,25,11,02,25.80
2017,06,25,11,03,25.80
2017,06,25,11,04,25.90
2017,06,25,11,05,26.00
2017,06,25,11,06,26.10
2017,06,25,11,07,26.20
2017,06,25,11,08,26.30
2017,06,25,11,09,26.40
2017,06,25,11,10,26.50
2017,06,25,11,11,26.60
2017,06,25,11,12,26.70
2017,06,25,11,13,26.70
2017,06,25,11,14,26.70
2017,06,25,11,15,26.70
2017,06,25,11,16,26.60
2017,06,25,11,17,26.60
2017,06,25,11,18,26.60
2017,06,25,11,19,26.60
2017,06,25,11,20,26.70
2017,06,25,11,21,26.70
2017,06,25,11,22,26.70
2017,06,25,11,23,26.80
2017,06,25,11,24,26.80
2017,06,25,11,25,26.80
2017,06,25,11,26,26.80
2017,06,25,11,27,26.80
2017,06,25,11,28,26.80
2017,06,25,11,29,26.80
2017,06,25,11,30,26.70
2017,06,25,11,31,26.80
2017,06,25,11,32,26.80
2017,06,25,11,33,26.80
2017,06,25,11,34,26.90
2017,06,25,11,35,26.80
2017,06,25,11,36,26.90
2017,06,25,11,37,26.90
2017,06,25,11,38,26.90
2017,06,25,11,39,26.90
2017,06,25,11,40,26.90
2017,06,25,11,41,27.00
2017,06,25,11,42,27.00
2017,06,25,11,43,27.00
2017,06,25,11,44,27.00
2017,06,25,11,45,27.00
2017,06,25,11,46,27.00
2017,06,25,11,47,27.00
2017,06,25,11,48,26.90
2017,06,25,11,49,26.90
2017,06,25,11,50,26.90
2017,06,25,11,51,27.00
2017,06,25,11,52,27.10
2017,06,25,11,53,27.20
2017,06,25,11,54,27.30
2017,06,25,11,55,27.40
2017,06,25,11,56,27.50
2017,06,25,11,57,27.60
2017,06,25,11,58,27.70
2017,06,25,11,59,27.80
2017,06,25,12,00,27.90
2017,06,25,12,01,28.00
2017,06,25,12,02,28.10
2017,06,25,12,03,28.10
2017,06,25,12,04,28.10
2017,06,25,12,05,28.10
2017,06,25,12,06,28.20
2017,06,25,12,07,28.20
2017,06,25,12,08,28.30
2017,06,25,12,09,28.40
2017,06,25,12,10,28.50
2017,06,25,12,11,28.50
2017,06,25,12,12,28.50
2017,06,25,12,13,28.50
2017,06,25,12,14,28.50
2017,06,25,12,15,28.50
2017,06,25,12,16,28.60
2017,06,25,12,17,28.60
2017,06,25,12,18,28.60
2017,06,25,12,19,28.70
2017,06,25,12,20,28.80
2017,06,25,12,21,28.80
2017,06,25,12,22,28.90
2017,06,25,12,23,28.90
2017,06,25,12,24,28.90
2017,06,25,12,25,29.00
2017,06,25,12,26,29.00
2017,06,25,12,27,29.10
2017,06,25,12,28,29.20
2017,06,25,12,29,29.20
2017,06,25,12,30,29.30
2017,06,25,12,31,29.30
2017,06,25,12,32,29.30
2017,06,25,12,33,29.30
2017,06,25,12,34,29.40
2017,06,25,12,35,29.40
2017,06,25,12,36,29.50
2017,06,25,12,37,29.50
2017,06,25,12,38,29.50
2017,06,25,12,39,29.50
2017,06,25,12,40,29.50
2017,06,25,12,41,29.50
2017,06,25,12,42,29.50
2017,06,25,12,43,29.40
2017,06,25,12,44,29.30
2017,06,25,12,45,29.30
2017,06,25,12,46,29.30
2017,06,25,12,47,29.30
2017,06,25,12,48,29.30
2017,06,25,12,49,29.30
2017,06,25,12,50,29.30
2017,06,25,12,51,29.40
2017,06,25,12,52,29.40
2017,06,25,12,53,29.40
2017,06,25,12,54,29.40
2017,06,25,12,55,29.40
2017,06,25,12,56,29.40
2017,06,25,12,57,29.50
2017,06,25,12,58,29.50
2017,06,25,12,59,29.70
2017,06,25,13,00,29.80
2017,06,25,13,01,29.90
2017,06,25,13,02,30.00
2017,06,25,13,03,30.00
2017,06,25,13,04,30.20
2017,06,25,13,05,30.30
2017,06,25,13,06,30.40
2017,06,25,13,07,30.50
2017,06,25,13,08,30.50
2017,06,25,13,09,30.60
2017,06,25,13,10,30.70
2017,06,25,13,11,30.80
2017,06,25,13,12,30.90
2017,06,25,13,13,30.90
2017,06,25,13,14,31.00
2017,06,25,13,15,31.00
2017,06,25,13,16,31.00
2017,06,25,13,17,31.10
2017,06,25,13,18,31.10
2017,06,25,13,19,31.10
2017,06,25,13,20,31.10
2017,06,25,13,21,31.10
2017,06,25,13,22,31.10
2017,06,25,13,23,31.20
2017,06,25,13,24,31.10
2017,06,25,13,25,31.10
2017,06,25,13,26,31.10
2017,06,25,13,27,31.10
2017,06,25,13,28,31.10
2017,06,25,13,29,31.10
2017,06,25,13,30,31.10
2017,06,25,13,31,31.10
2017,06,25,13,32,31.00
2017,06,25,13,33,31.00
2017,06,25,13,34,31.10
2017,06,25,13,35,31.10
2017,06,25,13,36,31.10
2017,06,25,13,37,31.20
2017,06,25,13,38,31.30
2017,06,25,13,39,31.30
2017,06,25,13,40,31.30
2017,06,25,13,41,31.30
2017,06,25,13,42,31.40
2017,06,25,13,43,31.40
2017,06,25,13,44,31.40
2017,06,25,13,45,31.50
2017,06,25,13,46,31.50
2017,06,25,13,47,31.50
2017,06,25,13,48,31.40
2017,06,25,13,49,31.30
2017,06,25,13,50,31.10
2017,06,25,13,51,31.00
2017,06,25,13,52,30.90
2017,06,25,13,53,30.80
2017,06,25,13,54,30.70
2017,06,25,13,55,30.60
2017,06,25,13,56,30.50
2017,06,25,13,57,30.50
2017,06,25,13,58,30.40
2017,06,25,13,59,30.40
2017,06,25,14,00,30.50
2017,06,25,14,01,30.60
2017,06,25,14,02,30.60
2017,06,25,14,03,30.70
2017,06,25,14,04,30.80
2017,06,25,14,05,30.80
2017,06,25,14,06,30.90
2017,06,25,14,07,31.00
2017,06,25,14,08,31.10
2017,06,25,14,09,31.20
2017,06,25,14,10,31.30
2017,06,25,14,11,31.40
2017,06,25,14,12,31.40
2017,06,25,14,13,31.60
2017,06,25,14,14,31.70
2017,06,25,14,15,31.80
2017,06,25,14,16,31.80
2017,06,25,14,17,31.90
2017,06,25,14,18,32.10
2017,06,25,14,19,32.10
2017,06,25,14,20,32.20
2017,06,25,14,21,32.20
2017,06,25,14,22,32.20
2017,06,25,14,23,32.30
2017,06,25,14,24,32.30
2017,06,25,14,25,32.30
2017,06,25,14,26,32.40
2017,06,25,14,27,32.40
2017,06,25,14,28,32.50
2017,06,25,14,29,32.60
2017,06,25,14,30,32.60
2017,06,25,14,31,32.70
2017,06,25,14,32,32.80
2017,06,25,14,33,32.90
2017,06,25,14,34,32.90
2017,06,25,14,35,32.90
2017,06,25,14,36,32.90
2017,06,25,14,37,32.90
2017,06,25,14,38,32.80
2017,06,25,14,39,32.80
2017,06,25,14,40,32.80
2017,06,25,14,41,32.80
2017,06,25,14,42,32.80
2017,06,25,14,43,32.80
2017,06,25,14,44,32.80
2017,06,25,14,45,32.80
2017,06,25,14,46,32.70
2017,06,25,14,47,32.70
2017,06,25,14,48,32.70
2017,06,25,14,49,32.70
2017,06,25,14,50,32.70
2017,06,25,14,51,32.70
2017,06,25,14,52,32.60
2017,06,25,14,53,32.60
2017,06,25,14,54,32.60
2017,06,25,14,55,32.70
2017,06,25,14,56,32.70
2017,06,25,14,57,32.80
2017,06,25,14,58,32.90
2017,06,25,14,59,33.00
2017,06,25,15,00,33.10
2017,06,25,15,01,33.20
2017,06,25,15,02,33.10
2017,06,25,15,03,33.10
2017,06,25,15,04,33.00
2017,06,25,15,05,33.00
2017,06,25,15,06,32.90
2017,06,25,15,07,32.90
2017,06,25,15,08,32.90
2017,06,25,15,09,32.90
2017,06,25,15,10,32.90
2017,06,25,15,11,32.80
2017,06,25,15,12,32.80
2017,06,25,15,13,32.80
2017,06,25,15,14,32.80
2017,06,25,15,15,32.70
2017,06,25,15,16,32.80
2017,06,25,15,17,32.80
2017,06,25,15,18,32.90
2017,06,25,15,19,32.90
2017,06,25,15,20,33.00
2017,06,25,15,21,33.00
2017,06,25,15,22,33.00
2017,06,25,15,23,33.00
2017,06,25,15,24,33.00
2017,06,25,15,25,33.00
2017,06,25,15,26,33.00
2017,06,25,15,27,33.00
2017,06,25,15,28,33.00
2017,06,25,15,29,33.10
2017,06,25,15,30,33.10
2017,06,25,15,31,33.10
2017,06,25,15,32,33.10
2017,06,25,15,33,33.00
2017,06,25,15,34,33.00
2017,06,25,15,35,32.90
2017,06,25,15,36,33.00
2017,06,25,15,37,33.10
2017,06,25,15,38,33.10
2017,06,25,15,39,33.20
2017,06,25,15,40,33.20
2017,06,25,15,41,33.30
2017,06,25,15,42,33.30
2017,06,25,15,43,33.30
2017,06,25,15,44,33.30
2017,06,25,15,45,33.20
2017,06,25,15,46,33.20
2017,06,25,15,47,33.10
2017,06,25,15,48,33.10
2017,06,25,15,49,33.10
2017,06,25,15,50,33.20
2017,06,25,15,51,33.20
2017,06,25,15,52,33.10
2017,06,25,15,53,33.10
2017,06,25,15,54,33.00
2017,06,25,15,55,32.90
2017,06,25,15,56,32.90
2017,06,25,15,57,32.90
2017,06,25,15,58,32.90
2017,06,25,15,59,32.90
2017,06,25,16,00,32.90
2017,06,25,16,01,32.90
2017,06,25,16,02,32.80
2017,06,25,16,03,32.80
2017,06,25,16,04,32.80
2017,06,25,16,05,32.80
2017,06,25,16,06,32.80
2017,06,25,16,07,32.80
2017,06,25,16,08,32.80
2017,06,25,16,09,32.80
2017,06,25,16,10,32.70
2017,06,25,16,11,32.70
2017,06,25,16,12,32.60
2017,06,25,16,13,32.60
2017,06,25,16,14,32.60
2017,06,25,16,15,32.60
2017,06,25,16,16,32.60
2017,06,25,16,17,32.60
2017,06,25,16,18,32.60
2017,06,25,16,19,32.60
2017,06,25,16,20,32.50
2017,06,25,16,21,32.50
2017,06,25,16,22,32.40
2017,06,25,16,23,32.40
2017,06,25,16,24,32.40
2017,06,25,16,25,32.40
2017,06,25,16,26,32.40
2017,06,25,16,27,32.40
2017,06,25,16,28,32.40
2017,06,25,16,29,32.40
2017,06,25,16,30,32.40
2017,06,25,16,31,32.40
2017,06,25,16,32,32.40
2017,06,25,16,33,32.40
2017,06,25,16,34,32.40
2017,06,25,16,35,32.50
2017,06,25,16,36,32.50
2017,06,25,16,37,32.60
2017,06,25,16,38,32.60
2017,06,25,16,39,32.70
2017,06,25,16,40,32.70
2017,06,25,16,41,32.80
2017,06,25,16,42,32.80
2017,06,25,16,43,32.80
2017,06,25,16,44,32.70
2017,06,25,16,45,32.70
2017,06,25,16,46,32.60
2017,06,25,16,47,32.60
2017,06,25,16,48,32.60
2017,06,25,16,49,32.60
2017,06,25,16,50,32.70
2017,06,25,16,51,32.70
2017,06,25,16,52,32.70
2017,06,25,16,53,32.80
2017,06,25,16,54,32.80
2017,06,25,16,55,32.90
2017,06,25,16,56,33.00
2017,06,25,16,57,33.00
2017,06,25,16,58,33.00
2017,06,25,16,59,33.00
2017,06,25,17,00,33.00
2017,06,25,17,01,33.10
2017,06,25,17,02,33.10
2017,06,25,17,03,33.00
2017,06,25,17,04,33.00
2017,06,25,17,05,33.00
2017,06,25,17,06,33.00
2017,06,25,17,07,33.10
2017,06,25,17,08,33.10
2017,06,25,17,09,33.10
2017,06,25,17,10,33.20
2017,06,25,17,11,33.10
2017,06,25,17,12,33.10
2017,06,25,17,13,33.10
2017,06,25,17,14,33.10
2017,06,25,17,15,33.00
2017,06,25,17,16,33.00
2017,06,25,17,17,32.90
2017,06,25,17,18,32.90
2017,06,25,17,19,32.90